Meteo pe oră la Dabrowki

Astăzi, 10 Aprilie, Sâmbătă

Timp Temperatura Precipitaţii Vânt Presiune Umiditate
00:00 +3°C° 0 mm 7 m/s 747 mmHg 55%
01:00 +4°C° 0 mm 7 m/s 747 mmHg 54%
02:00 +3°C° 0 mm 7 m/s 747 mmHg 55%
03:00 +3°C° 0 mm 7 m/s 747 mmHg 57%
04:00 +3°C° 0 mm 7 m/s 746 mmHg 58%
05:00 +4°C° 0 mm 7 m/s 746 mmHg 58%
06:00 +4°C° 0 mm 7 m/s 747 mmHg 59%
07:00 +4°C° 0 mm 7 m/s 747 mmHg 59%
08:00 +6°C° 0 mm 8 m/s 747 mmHg 56%
09:00 +9°C° 0 mm 8 m/s 746 mmHg 52%
10:00 +10°C° 0 mm 8 m/s 746 mmHg 48%
11:00 +11°C° 0 mm 8 m/s 746 mmHg 47%
12:00 +12°C° 0 mm 8 m/s 746 mmHg 45%
13:00 +13°C° 0 mm 8 m/s 747 mmHg 44%
14:00 +13°C° 0 mm 8 m/s 746 mmHg 47%
15:00 +14°C° 0 mm 7 m/s 746 mmHg 50%
16:00 +14°C° 0 mm 6 m/s 746 mmHg 53%
17:00 +11°C° 0 mm 6 m/s 747 mmHg 56%
18:00 +10°C° 0 mm 5 m/s 747 mmHg 60%
19:00 +8°C° 0 mm 5 m/s 747 mmHg 64%
20:00 +8°C° 0 mm 4 m/s 747 mmHg 66%
21:00 +8°C° 0 mm 4 m/s 747 mmHg 68%
22:00 +7°C° 0 mm 4 m/s 748 mmHg 69%
23:00 +7°C° 0 mm 4 m/s 748 mmHg 70%

Mâine, 11 Aprilie, Duminică

Timp Temperatura Precipitaţii Vânt Presiune Umiditate
00:00 +7°C° 0 mm 4 m/s 748 mmHg 71%
01:00 +6°C° 0 mm 4 m/s 748 mmHg 72%
02:00 +6°C° 0 mm 4 m/s 748 mmHg 74%
03:00 +7°C° 0 mm 3 m/s 748 mmHg 76%
04:00 +5°C° 0 mm 3 m/s 748 mmHg 78%
05:00 +6°C° 0 mm 4 m/s 748 mmHg 75%
06:00 +7°C° 0 mm 4 m/s 748 mmHg 72%
07:00 +8°C° 0 mm 5 m/s 748 mmHg 69%
08:00 +10°C° 0 mm 5 m/s 749 mmHg 61%
09:00 +13°C° 0 mm 6 m/s 749 mmHg 54%
10:00 +15°C° 0 mm 7 m/s 749 mmHg 47%
11:00 +15°C° 0 mm 7 m/s 748 mmHg 45%
12:00 +16°C° 0 mm 6 m/s 748 mmHg 43%
13:00 +17°C° 0 mm 6 m/s 748 mmHg 40%
14:00 +16°C° 0 mm 6 m/s 748 mmHg 44%
15:00 +16°C° 0 mm 5 m/s 747 mmHg 47%
16:00 +16°C° 0 mm 5 m/s 747 mmHg 50%
17:00 +14°C° 0 mm 4 m/s 747 mmHg 54%
18:00 +13°C° 0 mm 4 m/s 747 mmHg 58%
19:00 +12°C° 0 mm 3 m/s 748 mmHg 61%
20:00 +11°C° 0.1 mm 3 m/s 748 mmHg 64%
21:00 +11°C° 0.1 mm 3 m/s 748 mmHg 67%
22:00 +10°C° 0.1 mm 4 m/s 748 mmHg 70%
23:00 +10°C° 0.4 mm 4 m/s 748 mmHg 73%

Poimâine, 12 Aprilie, Luni

Timp Temperatura Precipitaţii Vânt Presiune Umiditate
00:00 +10°C° 0.4 mm 4 m/s 747 mmHg 77%
01:00 +9°C° 0.4 mm 5 m/s 747 mmHg 80%
02:00 +8°C° 0 mm 5 m/s 747 mmHg 79%
03:00 +8°C° 0 mm 4 m/s 747 mmHg 78%
04:00 +8°C° 0 mm 4 m/s 746 mmHg 77%
05:00 +9°C° 0 mm 5 m/s 746 mmHg 74%
06:00 +9°C° 0 mm 5 m/s 746 mmHg 70%
07:00 +10°C° 0 mm 6 m/s 746 mmHg 67%
08:00 +11°C° 0 mm 6 m/s 746 mmHg 65%
09:00 +11°C° 0 mm 6 m/s 746 mmHg 62%
10:00 +12°C° 0 mm 7 m/s 746 mmHg 60%
11:00 +12°C° 0 mm 7 m/s 746 mmHg 59%
12:00 +14°C° 0 mm 6 m/s 745 mmHg 58%
13:00 +14°C° 0 mm 6 m/s 745 mmHg 57%
14:00 +14°C° 0 mm 6 m/s 745 mmHg 59%
15:00 +14°C° 0 mm 5 m/s 745 mmHg 60%
16:00 +14°C° 0 mm 4 m/s 745 mmHg 62%
17:00 +13°C° 0 mm 4 m/s 745 mmHg 67%
18:00 +12°C° 0 mm 3 m/s 745 mmHg 72%
19:00 +11°C° 0 mm 3 m/s 745 mmHg 77%
20:00 +12°C° 0 mm 2 m/s 745 mmHg 76%
21:00 +12°C° 0 mm 2 m/s 745 mmHg 76%
22:00 +12°C° 0 mm 2 m/s 745 mmHg 75%
23:00 +12°C° 0 mm 2 m/s 745 mmHg 76%

13 Aprilie, Marţi

Timp Temperatura Precipitaţii Vânt Presiune Umiditate
00:00 +12°C° 0 mm 2 m/s 745 mmHg 76%
01:00 +12°C° 0 mm 2 m/s 745 mmHg 77%
02:00 +12°C° 0 mm 2 m/s 744 mmHg 78%
03:00 +12°C° 0 mm 1 m/s 744 mmHg 79%
04:00 +11°C° 0 mm 1 m/s 744 mmHg 80%
05:00 +10°C° 0.4 mm 2 m/s 744 mmHg 83%
06:00 +10°C° 0.4 mm 2 m/s 744 mmHg 86%
07:00 +10°C° 0.4 mm 2 m/s 745 mmHg 89%
08:00 +8°C° 1.1 mm 4 m/s 745 mmHg 90%
09:00 +6°C° 1.1 mm 5 m/s 746 mmHg 91%
10:00 +4°C° 1.1 mm 6 m/s 746 mmHg 92%
11:00 +3°C° 1.3 mm 6 m/s 746 mmHg 93%
12:00 +2°C° 1.3 mm 5 m/s 747 mmHg 94%
13:00 +1°C° 1.3 mm 5 m/s 747 mmHg 94%
14:00 +1°C° 0.9 mm 5 m/s 747 mmHg 95%
15:00 +1°C° 0.9 mm 4 m/s 747 mmHg 96%
16:00 0°C° 0.9 mm 4 m/s 747 mmHg 97%
17:00 0°C° 0.5 mm 4 m/s 747 mmHg 97%
18:00 0°C° 0.5 mm 4 m/s 747 mmHg 98%
19:00 0°C° 0.5 mm 4 m/s 747 mmHg 98%
20:00 0°C° 1.7 mm 4 m/s 746 mmHg 98%
21:00 -1°C° 1.7 mm 4 m/s 746 mmHg 99%
22:00 -1°C° 1.7 mm 4 m/s 746 mmHg 99%
23:00 -1°C° 2.2 mm 4 m/s 746 mmHg 99%

14 Aprilie, Miercuri

Timp Temperatura Precipitaţii Vânt Presiune Umiditate
00:00 -1°C° 2.2 mm 4 m/s 746 mmHg 99%
01:00 -2°C° 2.2 mm 5 m/s 745 mmHg 99%
02:00 -2°C° 0.9 mm 5 m/s 745 mmHg 99%
03:00 -2°C° 0.9 mm 5 m/s 745 mmHg 99%
04:00 -3°C° 0.9 mm 6 m/s 745 mmHg 99%
05:00 -3°C° 0.7 mm 6 m/s 745 mmHg 99%
06:00 -3°C° 0.7 mm 6 m/s 745 mmHg 99%
07:00 -3°C° 0.7 mm 6 m/s 745 mmHg 99%
08:00 -3°C° 0.7 mm 6 m/s 745 mmHg 99%
09:00 -2°C° 0.7 mm 6 m/s 745 mmHg 99%
10:00 -2°C° 0.7 mm 6 m/s 745 mmHg 99%
11:00 -2°C° 1.7 mm 6 m/s 744 mmHg 99%
12:00 -2°C° 1.7 mm 6 m/s 744 mmHg 99%
13:00 -2°C° 1.7 mm 6 m/s 744 mmHg 99%
14:00 -2°C° 2 mm 6 m/s 744 mmHg 99%
15:00 -2°C° 2 mm 7 m/s 744 mmHg 99%
16:00 -2°C° 2 mm 7 m/s 743 mmHg 99%
17:00 -2°C° 1.8 mm 7 m/s 743 mmHg 99%
18:00 -2°C° 1.8 mm 7 m/s 743 mmHg 99%
19:00 -3°C° 1.8 mm 7 m/s 743 mmHg 99%
20:00 -3°C° 1.7 mm 7 m/s 743 mmHg 99%
21:00 -3°C° 1.7 mm 7 m/s 743 mmHg 99%
22:00 -3°C° 1.7 mm 6 m/s 743 mmHg 98%
23:00 -3°C° 1.6 mm 6 m/s 742 mmHg 98%

15 Aprilie, Joi

Timp Temperatura Precipitaţii Vânt Presiune Umiditate
00:00 -3°C° 1.6 mm 6 m/s 742 mmHg 98%
01:00 -3°C° 1.6 mm 6 m/s 742 mmHg 98%
02:00 -3°C° 1.6 mm 6 m/s 742 mmHg 98%
03:00 -3°C° 1.6 mm 6 m/s 742 mmHg 98%
04:00 -3°C° 1.6 mm 6 m/s 742 mmHg 98%
05:00 -3°C° 1.3 mm 6 m/s 742 mmHg 98%
06:00 -3°C° 1.3 mm 6 m/s 742 mmHg 99%
07:00 -3°C° 1.3 mm 6 m/s 742 mmHg 99%
08:00 -3°C° 0.8 mm 6 m/s 743 mmHg 99%
09:00 -3°C° 0.8 mm 6 m/s 743 mmHg 99%
10:00 -3°C° 0.8 mm 6 m/s 743 mmHg 99%
11:00 -3°C° 0.5 mm 6 m/s 743 mmHg 99%
12:00 -3°C° 0.5 mm 6 m/s 744 mmHg 99%
13:00 -2°C° 0.5 mm 5 m/s 744 mmHg 99%
14:00 -2°C° 0.5 mm 5 m/s 744 mmHg 99%
15:00 -2°C° 0.5 mm 5 m/s 744 mmHg 99%
16:00 -1°C° 0.5 mm 5 m/s 744 mmHg 99%
17:00 -2°C° 0.6 mm 5 m/s 744 mmHg 99%
18:00 -2°C° 0.6 mm 5 m/s 744 mmHg 98%
19:00 -2°C° 0.6 mm 5 m/s 744 mmHg 98%
20:00 -2°C° 0.7 mm 5 m/s 744 mmHg 98%
21:00 -2°C° 0.7 mm 5 m/s 744 mmHg 98%
22:00 -2°C° 0.7 mm 5 m/s 744 mmHg 98%
23:00 -2°C° 0.6 mm 6 m/s 744 mmHg 98%
Arată mai mult

Formular de consimțământ

Meteoprog și furnizorii noștri de servicii pot stoca și accesa date personale, precum cookies, identificatori de dispozitiv sau alte tehnologii similare pe dispozitivul dumneavoastră și procesa astfel de date pentru a personaliza conținutul și reclamele, dar și pentru a oferi caracteristici de social media și pentru a analiza traficul.

  • Stocarea și/sau accesarea informațiilor pe dispozitivul dumneavoastră

    Cookies, identificatori de dispozitiv sau alte informații pot fi stocate sau accesate pe dispozitiv în scopurile indicate mai sus.

  • Reclame și conținut personalizat, evaluarea reclamelor și a conținutului, informații despre audiențe și dezvoltarea produselor

    Reclamele și conținutul pot fi personalizate pe baza unui profil. Pot fi adăugate date suplimentare pentru a personaliza mai bine reclamele și conținutul. Performanța reclamelor și conținutului poate fi măsurată. Pot fi obținute informații despre utilizatorii care au văzut reclamele și conținutul. Aceste date pot fi utilizate pentru a dezvolta sau îmbunătăți experiența utilizatorilor, sistemele și software-ul.

Dând clic pe ‘Sunt de acord’, permiteți utilizarea cookie-urilor menționate, a identificatorilor de dispozitiv, balizelor web sau altor tehnologii similare. Setările pot fi modificate din browser-ul dispozitivului dumneavoastră.

În anumite scopuri, interesele legitime pot prima asupra consimțământului. Puteți citi mai multe informații în acest sens în Politica privind Confidențialitatea Datelor și Cookie.